Weather in Mashuk

Russia / Stavropol Krai     44°03′00″N   43°05′17″E
temp.,
°C
wind,
m/s
gust,
m/s
humid.,
%
clouds,
%
prec.,
mm/h
press.,
hPa
HPBL,
m
14 may, fri
fri1400:00+14sse2280100 0.0 101418
03:00+13s11625 0.0 101312
06:00+15ssw22480 0.0 101312
09:00+21e22440 0.0 1013270
12:00+25e33410 0.0 1013590
15:00+25ese56500 0.0 1012874
18:00+22ese356933 0.0 1012256
21:00+17sse33843 0.0 101341
15 may, sat
sat1500:00+17sw22651 0.0 101217
03:00+17wsw225129 0.0 101316
06:00+17sw225766 0.0 101319
09:00+24nw35504 0.0 1013584
12:00+26nnw44480 0.0 10131206
15:00+26n33553 0.0 10121512
18:00+23ene227598 1.1 1012227
21:00+19ssw2284100 1.9 101318
16 may, sun
sun1600:00+16sw2270100 0.6 101215
03:00+16sw2271100 0.6 101111
06:00+17s11745 0.0 101120
09:00+22e356342 0.0 1009567
12:00+24e56595 0.0 10081136
15:00+25ese5657100 0.0 10071398
18:00+22ese2573100 0.0 1006268
21:00+19sse3479100 0.1 100683
17 may, mon
mon1700:00+17sse2282100 0.0 100521
03:00+16s1169100 0.0 100512
06:00+17sse1162100 0.0 100522
09:00+23ene22493 0.0 1005377
12:00+26e325182 0.0 1006816
15:00+26nw445265 0.1 10061599
18:00+19wsw2477100 2.5 1008241
21:00+16w4689100 4.0 1011183
18 may, tue
tue1800:00+15wsw339063 2.7 101062
03:00+14w3485100 3.3 101049
06:00+14wnw4994100 0.4 1012479
09:00+16nw4779100 0.5 1012637
12:00+15wnw4985100 0.1 1014564
15:00+19nw476470 0.4 10141170
18:00+18nw247398 0.1 1014434
21:00+14w339294 0.4 101643